When you browse on this site, cookies collect data to enhance your experience and personalize the content and advertising you see.
Visit our Privacy Policy to learn more. By continuing to use the site, you agree to this use of cookies and data.
  • In Romania
  • List of Countries
  • For 7 days
  • Water Temperature
  • Satellite Maps
  • Weather Map
  • Weather Widgets
  • user-avatar
    Login

    Hourly Weather Irsaevo

    Today, 24 July, Wednesday

    Time Temperature Precipitation Wind Pressure Humidity
    00:00 +15°C° 0 mm 2 mps 748 mmHg 95%
    01:00 +14°C° 0 mm 2 mps 748 mmHg 96%
    02:00 +14°C° 0 mm 2 mps 749 mmHg 96%
    03:00 +14°C° 0 mm 2 mps 749 mmHg 96%
    04:00 +13°C° 0 mm 2 mps 749 mmHg 96%
    05:00 +14°C° 0 mm 2 mps 749 mmHg 95%
    06:00 +15°C° 0 mm 2 mps 750 mmHg 94%
    07:00 +17°C° 0 mm 2 mps 750 mmHg 93%
    08:00 +18°C° 0 mm 2 mps 750 mmHg 87%
    09:00 +20°C° 0 mm 2 mps 750 mmHg 81%
    10:00 +21°C° 0 mm 2 mps 750 mmHg 76%
    11:00 +23°C° 0.4 mm 2 mps 750 mmHg 73%
    12:00 +24°C° 0.4 mm 2 mps 750 mmHg 71%
    13:00 +24°C° 0.4 mm 2 mps 750 mmHg 69%
    14:00 +25°C° 0.2 mm 2 mps 750 mmHg 68%
    15:00 +25°C° 0.2 mm 2 mps 750 mmHg 67%
    16:00 +25°C° 0.2 mm 2 mps 750 mmHg 66%
    17:00 +24°C° 0.1 mm 1 mps 750 mmHg 70%
    18:00 +24°C° 0.1 mm 1 mps 750 mmHg 74%
    19:00 +23°C° 0.1 mm 1 mps 751 mmHg 79%
    20:00 +22°C° 0 mm 1 mps 751 mmHg 82%
    21:00 +20°C° 0 mm 1 mps 751 mmHg 85%
    22:00 +18°C° 0 mm 1 mps 751 mmHg 88%
    23:00 +18°C° 0 mm 1 mps 751 mmHg 88%

    Tomorrow, 25 July, Thursday

    Time Temperature Precipitation Wind Pressure Humidity
    00:00 +18°C° 0 mm 1 mps 751 mmHg 88%
    01:00 +16°C° 0 mm 1 mps 752 mmHg 89%
    02:00 +16°C° 0 mm 1 mps 752 mmHg 89%
    03:00 +15°C° 0 mm 1 mps 752 mmHg 88%
    04:00 +15°C° 0 mm 1 mps 752 mmHg 88%
    05:00 +16°C° 0 mm 1 mps 752 mmHg 85%
    06:00 +18°C° 0 mm 1 mps 752 mmHg 82%
    07:00 +20°C° 0 mm 1 mps 752 mmHg 79%
    08:00 +21°C° 0 mm 1 mps 753 mmHg 74%
    09:00 +23°C° 0 mm 1 mps 753 mmHg 69%
    10:00 +25°C° 0 mm 2 mps 753 mmHg 64%
    11:00 +25°C° 0 mm 2 mps 753 mmHg 61%
    12:00 +26°C° 0 mm 2 mps 753 mmHg 57%
    13:00 +27°C° 0 mm 2 mps 753 mmHg 54%
    14:00 +27°C° 0 mm 2 mps 753 mmHg 54%
    15:00 +27°C° 0 mm 2 mps 753 mmHg 55%
    16:00 +27°C° 0 mm 2 mps 753 mmHg 56%
    17:00 +26°C° 0 mm 2 mps 752 mmHg 62%
    18:00 +25°C° 0 mm 2 mps 752 mmHg 69%
    19:00 +24°C° 0 mm 2 mps 752 mmHg 75%
    20:00 +23°C° 0 mm 2 mps 752 mmHg 78%
    21:00 +20°C° 0 mm 2 mps 752 mmHg 81%
    22:00 +18°C° 0 mm 2 mps 753 mmHg 83%
    23:00 +18°C° 0 mm 2 mps 753 mmHg 84%

    Day after tomorrow, 26 July, Friday

    Time Temperature Precipitation Wind Pressure Humidity
    00:00 +17°C° 0 mm 2 mps 753 mmHg 85%
    01:00 +17°C° 0 mm 2 mps 753 mmHg 86%
    02:00 +17°C° 0 mm 2 mps 753 mmHg 87%
    03:00 +16°C° 0 mm 2 mps 753 mmHg 87%
    04:00 +16°C° 0 mm 1 mps 753 mmHg 87%
    05:00 +18°C° 0 mm 1 mps 753 mmHg 84%
    06:00 +19°C° 0 mm 1 mps 753 mmHg 80%
    07:00 +21°C° 0 mm 1 mps 753 mmHg 76%
    08:00 +21°C° 0 mm 2 mps 753 mmHg 70%
    09:00 +24°C° 0 mm 2 mps 753 mmHg 65%
    10:00 +25°C° 0 mm 2 mps 752 mmHg 59%
    11:00 +26°C° 0 mm 2 mps 752 mmHg 58%
    12:00 +26°C° 0 mm 3 mps 752 mmHg 56%
    13:00 +27°C° 0 mm 3 mps 752 mmHg 55%
    14:00 +27°C° 0 mm 3 mps 751 mmHg 55%
    15:00 +27°C° 0 mm 3 mps 751 mmHg 55%
    16:00 +27°C° 0 mm 2 mps 751 mmHg 56%
    17:00 +26°C° 0 mm 2 mps 750 mmHg 63%
    18:00 +25°C° 0 mm 2 mps 750 mmHg 70%
    19:00 +24°C° 0 mm 2 mps 750 mmHg 77%
    20:00 +23°C° 0 mm 2 mps 750 mmHg 81%
    21:00 +21°C° 0 mm 1 mps 750 mmHg 84%
    22:00 +19°C° 0 mm 1 mps 750 mmHg 87%
    23:00 +19°C° 0 mm 1 mps 750 mmHg 85%

    27 July, Saturday

    Time Temperature Precipitation Wind Pressure Humidity
    00:00 +18°C° 0 mm 1 mps 749 mmHg 83%
    01:00 +16°C° 0 mm 1 mps 749 mmHg 81%
    02:00 +16°C° 0 mm 1 mps 749 mmHg 79%
    03:00 +15°C° 0 mm 1 mps 749 mmHg 78%
    04:00 +15°C° 0 mm 1 mps 748 mmHg 76%
    05:00 +16°C° 0 mm 1 mps 748 mmHg 76%
    06:00 +18°C° 0 mm 1 mps 748 mmHg 76%
    07:00 +18°C° 0 mm 0 mps 748 mmHg 75%
    08:00 +19°C° 0 mm 0 mps 748 mmHg 72%
    09:00 +22°C° 0 mm 1 mps 747 mmHg 69%
    10:00 +24°C° 0 mm 1 mps 747 mmHg 65%
    11:00 +25°C° 0 mm 1 mps 746 mmHg 63%
    12:00 +25°C° 0 mm 1 mps 746 mmHg 61%
    13:00 +26°C° 0 mm 1 mps 745 mmHg 59%
    14:00 +26°C° 0 mm 1 mps 745 mmHg 59%
    15:00 +26°C° 0 mm 1 mps 744 mmHg 59%
    16:00 +26°C° 0 mm 1 mps 744 mmHg 59%
    17:00 +25°C° 0.2 mm 1 mps 744 mmHg 65%
    18:00 +24°C° 0.2 mm 1 mps 743 mmHg 71%
    19:00 +24°C° 0.2 mm 1 mps 743 mmHg 77%
    20:00 +22°C° 0 mm 1 mps 742 mmHg 80%
    21:00 +21°C° 0 mm 1 mps 742 mmHg 82%
    22:00 +19°C° 0 mm 1 mps 742 mmHg 85%
    23:00 +19°C° 0 mm 1 mps 741 mmHg 86%

    28 July, Sunday

    Time Temperature Precipitation Wind Pressure Humidity
    00:00 +18°C° 0 mm 1 mps 741 mmHg 87%
    01:00 +18°C° 0 mm 1 mps 740 mmHg 88%
    02:00 +18°C° 0 mm 1 mps 740 mmHg 89%
    03:00 +16°C° 0 mm 1 mps 739 mmHg 90%
    04:00 +16°C° 0 mm 2 mps 739 mmHg 90%
    05:00 +17°C° 0 mm 2 mps 738 mmHg 89%
    06:00 +18°C° 0 mm 2 mps 738 mmHg 87%
    07:00 +19°C° 0 mm 2 mps 737 mmHg 85%
    08:00 +20°C° 0.5 mm 2 mps 737 mmHg 82%
    09:00 +22°C° 0.5 mm 3 mps 736 mmHg 79%
    10:00 +24°C° 0.5 mm 3 mps 736 mmHg 77%
    11:00 +22°C° 1.1 mm 4 mps 736 mmHg 80%
    12:00 +21°C° 1.1 mm 5 mps 736 mmHg 84%
    13:00 +20°C° 1.1 mm 6 mps 735 mmHg 88%
    14:00 +17°C° 0.4 mm 6 mps 735 mmHg 89%
    15:00 +16°C° 0.4 mm 5 mps 735 mmHg 91%
    16:00 +14°C° 0.4 mm 5 mps 735 mmHg 92%
    17:00 +14°C° 0.1 mm 5 mps 735 mmHg 91%
    18:00 +13°C° 0.1 mm 5 mps 736 mmHg 90%
    19:00 +13°C° 0.1 mm 5 mps 736 mmHg 88%
    20:00 +12°C° 0 mm 5 mps 736 mmHg 85%
    21:00 +12°C° 0 mm 4 mps 736 mmHg 82%
    22:00 +12°C° 0 mm 4 mps 736 mmHg 79%
    23:00 +11°C° 0 mm 4 mps 736 mmHg 79%

    29 July, Monday

    Time Temperature Precipitation Wind Pressure Humidity
    00:00 +10°C° 0 mm 4 mps 736 mmHg 79%
    01:00 +8°C° 0 mm 4 mps 736 mmHg 78%
    02:00 +7°C° 0 mm 4 mps 736 mmHg 83%
    03:00 +7°C° 0 mm 3 mps 736 mmHg 88%
    04:00 +5°C° 0 mm 3 mps 736 mmHg 93%
    05:00 +5°C° 0 mm 3 mps 736 mmHg 90%
    06:00 +7°C° 0 mm 3 mps 736 mmHg 86%
    07:00 +8°C° 0 mm 3 mps 736 mmHg 83%
    08:00 +8°C° 0.1 mm 4 mps 736 mmHg 79%
    09:00 +10°C° 0.1 mm 4 mps 736 mmHg 75%
    10:00 +11°C° 0.1 mm 4 mps 736 mmHg 70%
    11:00 +11°C° 0.2 mm 4 mps 736 mmHg 70%
    12:00 +11°C° 0.2 mm 4 mps 736 mmHg 69%
    13:00 +11°C° 0.2 mm 4 mps 736 mmHg 69%
    14:00 +11°C° 0.2 mm 4 mps 736 mmHg 70%
    15:00 +11°C° 0.2 mm 4 mps 736 mmHg 72%
    16:00 +11°C° 0.2 mm 4 mps 736 mmHg 74%
    17:00 +10°C° 0.2 mm 4 mps 737 mmHg 78%
    18:00 +9°C° 0.2 mm 3 mps 737 mmHg 82%
    19:00 +9°C° 0.2 mm 3 mps 737 mmHg 86%
    20:00 +8°C° 0.1 mm 3 mps 737 mmHg 89%
    21:00 +7°C° 0.1 mm 2 mps 737 mmHg 92%
    22:00 +6°C° 0.1 mm 2 mps 737 mmHg 95%
    23:00 +6°C° 0.1 mm 2 mps 737 mmHg 95%
    Show more